ROMMA est une association bénévole à but non lucratif. Votre soutien est indispensable : ADHERER à ROMMA ou FAIRE un DON

Chambon - (38, Isère)

Oisans (2460 m)   Longitude: 06° 10' 42" E   Latitude: 45° 01' 32" N Station partenaire n°803
 

Détail journalier du     <<     >>

Température Humidité Vent Dir Rafale Dir. rafale Neige 1 Neige 2
Heure (°C) (%) (km/h) (km/h) (cm) (cm)
01:00 -8.28020SO39SO162217
02:00 -8.68818SO36SO162217
03:00 -8.87922SSO36SSO162217
04:00 -7.87021S36SSO162217
05:00 -8.68020S34SO162217
06:00 -9.18721SO36SO162217
07:00 -9.07818SSO33SSO162217
08:00 -9.17613SSO30SSO162217
09:00 -9.26917SSO27SSO162217
10:00 -6.95312S26S162217
11:00 -6.15813S23S162217
12:00 -5.46216SSO26SSO162217
13:00 -4.56218SSO28SO162217
14:00 -4.36020SO31OSO162217
15:00 -3.76518SO27OSO162217
16:00 -3.46319SO26SO162216
17:00 -2.85417SO26SO162216
18:00 -3.7559SO20SO162216
19:00 -5.3613SE10OSO162216
20:00 -5.3592SE11SO162216
21:00 -5.7612ENE9ENE162216
22:00 -3.9493ENE21OSO162216
23:00 -3.2445NNE15OSO162216
minuit -3.3446NNE12O162216

Graphique du 05-03-2019

 

Serveur OMMA